Regional Weather Roundup
Issued by NWS

Home | Current Version | Previous Version | Graphics & Text | Print | Product List | Glossary On
Versions: 1 2 3 4 5 6 7 8 9 10 11 12 13 14 15 16 17 18 19 20 21 22 23 24 25 26 27 28 29 30 31 32 33 34 35 36 37 38 39 40 41 42 43 44 45 46 47 48 49 50
000
ASUS44 KMEG 270600
RWRTN
TENNESSEE HOURLY STATE WEATHER ROUNDUP
NATIONAL WEATHER SERVICE MEMPHIS TN
1200 AM CST MON FEB 27 2017

TNZ002-004-019-021-049-052-054-088>092-270700-
WEST TENNESSEE

CITY           SKY/WX    TMP DP  RH WIND       PRES   REMARKS
MEMPHIS INTL   LGT RAIN  53  39  59 N8G17     30.09R
NWS MEMPHIS      N/A     51 N/A N/A MISG        N/A
JACKSON        LGT RAIN  52  40  63 S6G18     30.13S
UNION CITY     CLOUDY    46  36  66 CALM      30.13F
PARIS          MOCLDY    46  36  66 CALM      30.16S
$$

TNZ008-025-027-028-033-062-065-066-270700-
NORTH MIDDLE TENNESSEE

CITY           SKY/WX    TMP DP  RH WIND       PRES   REMARKS
NASHVILLE      CLOUDY    49  28  44 VRB6      30.17S
CLARKSVILLE    CLOUDY    49  27  42 SW6       30.18S
SMYRNA         CLOUDY    45  35  68 CALM      30.18S
CROSSVILLE     CLOUDY    45  20  36 CALM      30.18R
$$

TNZ061-075-076-078-094-096-097-270700-
SOUTH MIDDLE TENNESSEE

CITY           SKY/WX    TMP DP  RH WIND       PRES   REMARKS
TULLAHOMA      MOCLDY    46  23  39 SW3       30.17R
WINCHESTER     CLOUDY    50  25  37 CALM      30.16R
MCMINNVILLE    PTCLDY    48  23  37 CALM      30.16R
COLUMBIA       MOCLDY    46  34  61 E3        30.13S
SHELBYVILLE    PTCLDY    48  32  53 NW3       30.18R
$$

TNZ017-018-042-046-047-270700-
NORTHEAST TENNESSEE

CITY           SKY/WX    TMP DP  RH WIND       PRES   REMARKS
TRI CITIES     PTCLDY    30  23  75 NE5       30.23S WCI  25
$$

TNZ012-013-036-069-073-074-270700-
CENTRAL EAST TENNESSEE

CITY           SKY/WX    TMP DP  RH WIND       PRES   REMARKS
KNOXVILLE      CLEAR     38  27  64 E6        30.21S WCI  33
OAK RIDGE      PTCLDY    37  27  67 CALM      30.23S
GATLINBURG     CLEAR     30  23  74 CALM      30.22R
$$

TNZ083-085-099-270700-
SOUTHEAST TENNESSEE

CITY           SKY/WX    TMP DP  RH WIND       PRES   REMARKS
CHATTANOOGA    PTCLDY    43  32  65 CALM      30.19F
$$

SKY/WX REPORTED AS FAIR MEANS FEW OR NO CLOUDS BELOW
12 THOUSAND FEET.




USA.gov is the U.S. government's official web portal to all federal, state and local government web resources and services.